Location: Rounton
(54.4000°N, 1.3500°W)
Time: 22:13:02
(UTC+00:00)

Explorer 7 - Pass Details

Date: 04 December 2021
Orbit: 483 x 674 km, 50.3° (Epoch: 17 January)

Event Time Altitude Azimuth Distance (km) Brightness Sun altitude
Rises 11:52:08 0° 272° (W) 2,621 10.3 13.3°
Reaches altitude 10° 11:56:01 10° 234° (SW) 1,694 9.9 13.3°
Maximum altitude 11:56:53 11° 220° (SW) 1,645 10.2 13.3°
Drops below altitude 10° 11:57:46 10° 207° (SSW) 1,679 10.7 13.3°
Sets 12:01:32 0° 168° (SSE) 2,537 11.9 13.3°
